Regional Weather Roundup
Issued by NWS Grand Forks, ND

Home | Current Version | Previous Version | Text Only | Print | Product List | Glossary Off
Versions: 1 2 3 4 5 6 7 8 9 10 11 12 13 14 15 16 17 18 19 20 21 22 23 24 25 26 27 28 29 30 31 32 33 34 35 36 37 38 39 40 41 42 43 44 45 46 47 48 49 50

000
ASUS43 KFGF 250610
RWRFGF
PRAIRIE TO PINES  WEATHER ROUNDUP
NATIONAL WEATHER SERVICE EASTERN NORTH DAKOTA/GRAND FORKS ND
100 AM CDT SAT APR 25 2015

 **SATELLITE DATA USED TO AUGMENT SKY COVER AT AUTOMATED STATIONS**
 *****  WEATHER ACROSS EASTERN NORTH DAKOTA  *****

CITY           SKY/WX    TMP DP  RH WIND       PRES   REMARKS
GRAND FORKS    CLOUDY    46  34  62 E9        29.83R
6HR MIN TEMP:  46; 6HR MAX TEMP:  52;

GRAND FRKS AFB CLOUDY    45  35  67 SE8       29.82S
GRAND FRKS NWS   N/A     43 N/A N/A E13         N/A
DEVILS LAKE    CLOUDY    45  37  76 SE10      29.78F
6HR MIN TEMP:  45; 6HR MAX TEMP:  55;

FARGO          CLOUDY    46  37  71 SE14      29.79R
WAHPETON ARPT  CLOUDY    43  37  81 SE10G20   29.78R
$$

 ***** WEATHER ACROSS CENTRAL AND WESTERN NORTH DAKOTA  *****

CITY           SKY/WX    TMP DP  RH WIND       PRES   REMARKS
BISMARCK       CLEAR     43  40  89 NE8       29.71S
6HR MIN TEMP:  43; 6HR MAX TEMP:  66;

MINOT          FAIR      43  37  79 E8        29.74R
6HR MIN TEMP:  43; 6HR MAX TEMP:  63;

JAMESTOWN      CLOUDY    44  40  85 E10       29.76R
6HR MIN TEMP:  44; 6HR MAX TEMP:  56;

MINOT AFB      FAIR      43  42  99 SE13      29.73R
GARRISON         N/A     46  41  82 SE16      29.70S
WILLISTON      MOCLDY    53  36  52 SE8       29.65S
6HR MIN TEMP:  53; 6HR MAX TEMP:  68;

DICKINSON      CLEAR     44  36  73 E13       29.64S
6HR MIN TEMP:  42; 6HR MAX TEMP:  67;

HETTINGER      CLEAR     46  37  71 E12       29.65F
6HR MIN TEMP:  44; 6HR MAX TEMP:  67;

$$

 *****  OTHER AIRPORT OBSERVATIONS IN OUR AREA  *****

CITY           SKY/WX    TMP DP  RH WIND       PRES   REMARKS
WALHALLA       CLOUDY    39  32  75 E5        29.85R
GRAFTON AIRPOR MOCLDY    43  36  75 E8        29.84S
VALLEY CITY AR CLOUDY    41  41 100 E8        29.77S FOG
CANDO          FAIR      37  32  81 E9        29.79F
CAVALIER APRT  CLOUDY    41  32  70 E5        29.84S
GWINNER        CLOUDY    45  45 100 E13       29.76S
ROLLA          MOCLDY    36  32  87 E5        29.81S
 ***** THE ABOVE OBSERVATIONS ARE NON NWS ARE NOT QUALITY
       CONTROLLED AND MAY MIS-REPORT RAIN FOR SNOW...
$$

  *****  WEATHER ACROSS NORTHERN MINNESOTA  *****

CITY           SKY/WX    TMP DP  RH WIND       PRES   REMARKS
FLAG ISLAND    CLOUDY    39  27  60 E9        29.90R
WARROAD        CLOUDY    36  32  87 E6        29.90R
ROSEAU         CLOUDY    41  34  75 E8        29.88R
HALLOCK        CLOUDY    43  34  70 E9        29.85S
THF RVR FALLS  CLOUDY    43  30  61 E9        29.85S
6HR MIN TEMP:  43; 6HR MAX TEMP:  46;

BAUDETTE       CLOUDY    40  23  50 E13       29.89R
6HR MIN TEMP:  40; 6HR MAX TEMP:  42;

WASKISH        CLOUDY    41  30  65 CALM      29.88S
CROOKSTON      CLOUDY    45  34  65 E6        29.84S
$$
  *****  WEATHER ACROSS CENTRAL AND WEST MINNESOTA  *****

CITY           SKY/WX    TMP DP  RH WIND       PRES   REMARKS
FOSSTON        CLOUDY    41  30  65 E5        29.84S
BEMIDJI        CLOUDY    40  31  69 E10       29.84S
PARK RAPIDS    CLOUDY    41  32  70 E8        29.82S
6HR MIN TEMP:  41; 6HR MAX TEMP:  45;

ELBOW LAKE     CLOUDY    42  41  97 E12       29.77S FOG
6HR MIN TEMP:  42; 6HR MAX TEMP:  45;

WADENA         CLOUDY    39  32  75 E7        29.80R
DETROIT LAKES  CLOUDY    41  32  70 SE10      29.81R
MOORHEAD       CLOUDY    45  36  70 E5        29.81R
FERGUS FALLS   CLOUDY    45  37  76 SE12      29.79S
MORRIS MN      FOG       43  43 100 E14       29.75S VSB 1
STAPLES        CLOUDY    39  30  70 E7        29.81S
$$
  *****  WEATHER ELSEWHERE ACROSS MINNESOTA  *****

CITY           SKY/WX    TMP DP  RH WIND       PRES   REMARKS
DULUTH         CLOUDY    36  24  62 E16G23    29.90F
6HR MIN TEMP:  35; 6HR MAX TEMP:  37;

INTRNTL FALLS  CLOUDY    38  21  50 E10       29.92S
6HR MIN TEMP:  38; 6HR MAX TEMP:  41;

ELY            CLOUDY    36  16  44 E6        29.95R
CLOQUET        CLOUDY    34  27  75 E10G16    29.90S
WHEATON        CLOUDY    41  39  93 E13       29.77S FOG
BRAINERD       CLOUDY    40  32  73 E7        29.83S
6HR MIN TEMP:  40; 6HR MAX TEMP:  43;

HIBBING        CLOUDY    37  18  46 E10       29.90F
6HR MIN TEMP:  36; 6HR MAX TEMP:  41;

ALEXANDRIA     LGT RAIN  41  40  96 E13       29.79R FOG
6HR MIN TEMP:  41; 6HR MAX TEMP:  43; 6HR PCP: TRACE;

SAINT CLOUD    CLOUDY    44  39  82 E7        29.80R
6HR MIN TEMP:  44; 6HR MAX TEMP:  46;

MINNEAPOLIS    CLOUDY    44  40  85 E15       29.81S
6HR MIN TEMP:  44; 6HR MAX TEMP:  45; 6HR PCP:  0.12;

$$

  *****  WEATHER ACROSS SOUTH DAKOTA  *****

CITY           SKY/WX    TMP DP  RH WIND       PRES   REMARKS
SIOUX FALLS    HVY RAIN  49  48  97 NE18      29.65R FOG
6HR MIN TEMP:  49; 6HR MAX TEMP:  67; 6HR PCP:  0.15;

BROOKINGS      CLOUDY    48  46  93 SE17      29.64F
WATERTOWN      LGT RAIN  45  42  89 E17G28    29.65F FOG
6HR MIN TEMP:  45; 6HR MAX TEMP:  57; 6HR PCP:  0.06;

HURON          CLOUDY    50  46  86 E25G37    29.58R
6HR MIN TEMP:  49; 6HR MAX TEMP:  72; 6HR PCP:  0.04;

SISSETON         N/A     44  43  96 SE17      29.72F
ABERDEEN       CLOUDY    47  43  86 NE14      29.67F
6HR MIN TEMP:  47; 6HR MAX TEMP:  55;

MITCHELL       CLOUDY    55  52  89 E23G30    29.54R
PIERRE         MOCLDY    49  43  80 NE17      29.57R
6HR MIN TEMP:  49; 6HR MAX TEMP:  72;

MOBRIDGE       CLEAR     47  42  83 E21G30    29.63R
RAPID CITY     PTCLDY    46  41  82 N8        29.62S
6HR MIN TEMP:  45; 6HR MAX TEMP:  68;

$$

  *****  SOME WEATHER IN NEARBY STATES *****

CITY           SKY/WX    TMP DP  RH WIND       PRES   REMARKS
GLASGOW MT     CLOUDY    53  33  46 N8        29.60S
6HR MIN TEMP:  51; 6HR MAX TEMP:  66;

GREAT FALLS MT LGT RAIN  41  38  89 E10       29.74R
6HR MIN TEMP:  41; 6HR MAX TEMP:  46; 6HR PCP:  0.05;

CHEYENNE WY    MOCLDY    44  33  65 W16       29.71S
6HR MIN TEMP:  44; 6HR MAX TEMP:  56; 6HR PCP: TRACE;

SCOTTSBLUFF NE PTCLDY    48  42  80 NW5       29.64R
6HR MIN TEMP:  47; 6HR MAX TEMP:  61; 6HR PCP: TRACE;

OMAHA NE       LGT RAIN  57  54  89 E10       29.52F FOG
6HR MIN TEMP:  57; 6HR MAX TEMP:  63; 6HR PCP: TRACE;

DES MOINES IA  CLOUDY    50  44  80 E12       29.64R
6HR MIN TEMP:  50; 6HR MAX TEMP:  54; 6HR PCP: TRACE;

DAVENPORT IA   MOCLDY    43  39  86 E18       29.74F FOG
6HR MIN TEMP:  43; 6HR MAX TEMP:  47; 6HR PCP:  0.09;

CHICAGO IL     CLOUDY    41  37  86 NE13      29.89F
6HR MIN TEMP:  41; 6HR MAX TEMP:  47; 6HR PCP:  0.16;

EAU CLAIRE WI  CLOUDY    43  35  73 E9        29.87F
6HR MIN TEMP:  43; 6HR MAX TEMP:  50;

LA CROSSE WI   CLOUDY    44  37  76 VRB6      29.84F
6HR MIN TEMP:  44; 6HR MAX TEMP:  46; 6HR PCP:  0.03;

$$

  *****  SOME NATIONAL WEATHER *****

CITY           SKY/WX    TMP DP  RH WIND       PRES   REMARKS
LA GUARDIA NY  FAIR      39  23  52 NW14      29.91F
6HR MIN TEMP:  39; 6HR MAX TEMP:  44;

RALEIGH NC     MOCLDY    48  39  71 CALM      29.94F
6HR MIN TEMP:  47; 6HR MAX TEMP:  59;

ATLANTA GA     CLOUDY    67  49  52 S6        29.90F
6HR MIN TEMP:  66; 6HR MAX TEMP:  73; 6HR PCP: TRACE;

NEW ORLEANS LA CLOUDY    78  74  87 S17G26    29.77F
6HR MIN TEMP:  71; 6HR MAX TEMP:  78;

OKLAHOMA CITY  CLOUDY    63  59  87 S17G26    29.59F
6HR MIN TEMP:  62; 6HR MAX TEMP:  70;

ALBUQUERQUE NM PTCLDY    53  34  48 W10       29.97R
6HR MIN TEMP:  52; 6HR MAX TEMP:  57;

SALT LAKE CITY RAIN      47  43  86 NW14      29.82R FOG
6HR MIN TEMP:  47; 6HR MAX TEMP:  56; 6HR PCP:  0.41;

LOS ANGELES CA MOCLDY    58  53  84 SW9       30.01F
6HR MIN TEMP:  58; 6HR MAX TEMP:  61;

BOISE ID       CLOUDY    49  31  49 N7        29.77F



USA.gov is the U.S. government's official web portal to all federal, state and local government web resources and services.